Location: Unspecified
(41.1637°N, 24.2901°E)
Time: 15:13:10
(UTC+02:00)

ISS - Pass Details

Date: 27 June 2022
Orbit: 414 x 420 km, 51.6° (Epoch: 05 July)

Event Time Altitude Azimuth Distance (km) Brightness Sun altitude
Exits shadow 03:21:58 21° 186° (S) 986 -2.4 -13.7°
Maximum altitude 03:23:32 33° 136° (SE) 718 -2.6 -13.5°
Drops below altitude 10° 03:26:37 10° 70° (ENE) 1,499 0.1 -13.1°
Sets 03:28:50 0° 61° (ENE) 2,367 1.6 -12.8°
